Simultaneous Nadir Overpasses (SNOs) Predictions

Prediction of SNOs between AQUA and METOP-C Satellite Orbit:

Table of predicted SNOs for the next 14.0 days since TLE Epoch: 2/20/2021
Index Date (AQUA) Time (AQUA) Lat,Lon (AQUA) SZA (AQUA ) Date (METOP-C) Time (METOP-C) Lat,Lon (METOP-C) SZA (METOP-C ) Distance(km) Time Diff (sec)
1 02/20/2021 12:19:11 73.61, -10.14 84.43 02/20/2021 12:17:58 73.54, -10.48 84.40 13.03 73
2 02/20/2021 13:08:39 -73.72, 157.27 95.47 02/20/2021 13:08:37 -73.72, 157.27 95.46 0.74 2
3 02/20/2021 13:58:07 73.76, -35.19 84.57 02/20/2021 13:59:15 73.77, -35.28 84.58 3.17 68
4 02/23/2021 07:53:26 73.64, 56.23 83.44 02/23/2021 07:52:17 73.67, 56.23 83.48 2.88 69
5 02/23/2021 08:42:54 -73.75,-136.37 96.46 02/23/2021 08:42:58 -73.75,-136.25 96.46 3.52 4
6 02/23/2021 09:32:23 73.84, 31.06 83.64 02/23/2021 09:33:35 73.85, 31.31 83.62 7.59 72
7 02/26/2021 03:27:42 73.68, 122.58 82.44 02/26/2021 03:26:39 73.69, 122.69 82.46 3.74 63
8 02/26/2021 04:17:09 -73.74, -69.90 97.52 02/26/2021 04:17:21 -73.73, -69.90 97.53 1.33 12
9 02/26/2021 05:06:43 74.09, 96.94 82.86 02/26/2021 05:07:53 74.07, 98.26 82.77 40.28 70
10 02/28/2021 23:01:57 73.68,-170.97 81.36 02/28/2021 23:01:02 73.67,-170.95 81.37 0.96 55
11 02/28/2021 23:51:24 -73.73, -3.45 98.59 02/28/2021 23:51:43 -73.75, -3.44 98.58 1.91 19
12 03/01/2021 00:41:03 74.35, 162.79 82.07 03/01/2021 00:42:10 74.34, 165.35 81.95 76.80 67
13 03/03/2021 18:36:11 73.68,-104.53 80.28 03/03/2021 18:35:23 73.69,-104.49 80.31 2.09 48
14 03/03/2021 19:25:38 -73.74, 62.99 99.67 03/03/2021 19:26:05 -73.72, 62.90 99.68 2.95 27



Historial Predications of SNOs between AQUA and METOP-C
